Zurück zum Katalog

COSMOS 2251 DEB

AktivLEO
NORAD 35982·DEBRIS·🇷🇺 Russia

Gestartet Jun 16, 1993 von Plesetsk Cosmodrome

Loading…

Nächste Überflüge (nächste 24 Stunden)

TLE

AktuellSource: Space-Track

Epoche: Sep 13, 2026, 04:43 UTC

1 35982U 93036AVY 26256.19666028  .00001278  00000-0  24215-3 0  9992
2 35982  74.0570 180.8634 0064564 178.5989 181.5373 14.64077085901813

Verfolge COSMOS 2251 DEB in Echtzeit mit AllMySat

Download on the App Store